Location: Stockholm
(59.3293°N, 18.0686°E)
Time: 01:50:29
(UTC+01:00)

ISS - Visible Passes

Search period start: 23 March 2019 00:00
Search period end: 02 April 2019 01:00
Orbit: 406 x 411 km, 51.6° (Epoch: 23 March)

Date Brightness Start Highest point End Pass type
(mag) Time Alt. Az. Time Alt. Az. Time Alt. Az.
24 Mar -1.7 19:35:06 10° S 19:36:36 13° SSE 19:36:39 13° SSE visible
25 Mar -1.9 20:19:01 10° SW 20:20:42 18° S 20:20:42 18° S visible
26 Mar -2.0 19:28:22 10° SSW 19:30:36 17° SSE 19:31:52 14° SE visible
26 Mar -1.4 21:03:50 10° SW 21:04:36 14° SW 21:04:36 14° SW visible
27 Mar -2.3 20:12:55 10° SW 20:15:31 22° S 20:15:40 21° S visible
28 Mar -2.1 19:22:04 10° SW 19:24:35 20° S 19:26:40 12° SE visible
28 Mar -1.7 20:57:59 10° WSW 20:59:24 17° SW 20:59:24 17° SW visible
29 Mar -2.2 20:06:56 10° WSW 20:09:32 21° S 20:10:20 19° SSE visible
30 Mar -2.1 19:15:58 10° SW 19:18:35 22° S 19:21:12 10° SE visible
30 Mar -1.6 20:52:18 10° WSW 20:53:57 16° SSW 20:53:57 16° SSW visible
31 Mar -1.9 21:01:06 10° WSW 21:03:28 19° SSW 21:04:50 15° SSE visible
01 Apr -2.0 20:09:58 10° WSW 20:12:32 21° S 20:15:03 10° SE visible
01 Apr -1.3 21:47:05 10° SW 21:48:13 11° SSW 21:48:25 11° SSW visible
